DAL5523 SCEL-SAEZ

Flight info

Callsign DAL5523
Flight time 1h 33m
Altitude 34000
Route ALBAL7C ALBAL UM424 ASADA ASADA7X
Aircraft B738/M-SDE2E3FGHIRWXY/LB1

Departure

Time 2026-04-30 21:02
Airport Comodoro Arturo Merino Benítez International Airport (SCEL)

Arrival

Time 2026-04-30 22:36
Airport Ezeiza International Airport - Ministro Pistarini (SAEZ)
Time Latitude Longitude Altitude Speed Heading
2026-04-30 20:22 -33.39608 -70.79619 1563 ft 0 kts 176°
2026-04-30 20:50 -33.39577 -70.79619 1563 ft 3 kts 186°
2026-04-30 20:50 -33.39557 -70.79615 1563 ft 3 kts 199°
2026-04-30 20:50 -33.39541 -70.79605 1563 ft 3 kts 229°
2026-04-30 20:50 -33.39534 -70.79591 1563 ft 1 kts 265°
2026-04-30 20:51 -33.39534 -70.79590 1563 ft 0 kts 266°
2026-04-30 20:54 -33.39537 -70.79641 1563 ft 12 kts 266°
2026-04-30 20:54 -33.39540 -70.79732 1563 ft 9 kts 280°
2026-04-30 20:54 -33.39489 -70.79786 1563 ft 13 kts 347°
2026-04-30 20:55 -33.39347 -70.79861 1563 ft 12 kts 254°
2026-04-30 20:55 -33.39343 -70.79977 1563 ft 16 kts 288°
2026-04-30 20:55 -33.39267 -70.80038 1563 ft 11 kts 351°
2026-04-30 20:56 -33.39059 -70.80062 1563 ft 19 kts 359°
2026-04-30 20:56 -33.38929 -70.80063 1563 ft 14 kts
2026-04-30 20:56 -33.38700 -70.80066 1563 ft 18 kts 359°
2026-04-30 20:57 -33.38577 -70.80072 1563 ft 18 kts 355°
2026-04-30 20:57 -33.38444 -70.80084 1563 ft 21 kts 355°
2026-04-30 20:57 -33.38331 -70.80094 1563 ft 15 kts 356°
2026-04-30 20:58 -33.38094 -70.80111 1563 ft 13 kts 357°
2026-04-30 20:58 -33.38012 -70.80115 1563 ft 10 kts 357°
2026-04-30 20:58 -33.37935 -70.80120 1563 ft 14 kts 357°
2026-04-30 20:58 -33.37822 -70.80127 1563 ft 19 kts 357°
2026-04-30 20:59 -33.37577 -70.80140 1563 ft 18 kts 357°
2026-04-30 20:59 -33.37452 -70.80147 1563 ft 19 kts 357°
2026-04-30 21:00 -33.37224 -70.80161 1563 ft 15 kts 353°
2026-04-30 21:00 -33.37136 -70.80332 1563 ft 15 kts 245°
2026-04-30 21:01 -33.37211 -70.80383 1563 ft 0 kts 173°
2026-04-30 21:01 -33.37627 -70.80344 1563 ft 69 kts 176°
2026-04-30 21:02 -33.38311 -70.80313 1563 ft 134 kts 178°
2026-04-30 21:02 -33.39448 -70.80261 1762 ft 184 kts 177°
2026-04-30 21:02 -33.40764 -70.80183 2661 ft 193 kts 176°
2026-04-30 21:02 -33.42065 -70.80097 3896 ft 176 kts 176°
2026-04-30 21:03 -33.43255 -70.79954 4953 ft 164 kts 172°
2026-04-30 21:03 -33.44359 -70.79767 5730 ft 161 kts 172°
2026-04-30 21:03 -33.45498 -70.79568 6196 ft 179 kts 172°
2026-04-30 21:03 -33.46831 -70.79334 6637 ft 200 kts 173°
2026-04-30 21:04 -33.48259 -70.79426 7022 ft 215 kts 191°
2026-04-30 21:04 -33.49837 -70.79614 7413 ft 239 kts 183°
2026-04-30 21:04 -33.53312 -70.79502 8125 ft 273 kts 176°
2026-04-30 21:05 -33.55295 -70.79285 8503 ft 289 kts 175°
2026-04-30 21:05 -33.57334 -70.79030 8861 ft 299 kts 175°
2026-04-30 21:05 -33.59391 -70.78775 9218 ft 296 kts 176°
2026-04-30 21:05 -33.61412 -70.78525 9564 ft 294 kts 175°
2026-04-30 21:06 -33.63436 -70.78277 9913 ft 293 kts 175°
2026-04-30 21:06 -33.65445 -70.78031 10272 ft 291 kts 174°
2026-04-30 21:06 -33.67461 -70.77785 10624 ft 285 kts 174°
2026-04-30 21:06 -33.69425 -70.77545 10976 ft 284 kts 175°
2026-04-30 21:07 -33.71411 -70.77303 11327 ft 297 kts 175°
2026-04-30 21:07 -33.73493 -70.77050 11680 ft 306 kts 175°
2026-04-30 21:07 -33.75639 -70.76789 12047 ft 315 kts 175°
2026-04-30 21:07 -33.77781 -70.76528 12393 ft 306 kts 175°
2026-04-30 21:08 -33.79886 -70.76128 12733 ft 301 kts 163°
2026-04-30 21:08 -33.81722 -70.74892 13087 ft 301 kts 142°
2026-04-30 21:08 -33.83057 -70.72966 13440 ft 308 kts 126°
2026-04-30 21:08 -33.84169 -70.70764 13776 ft 313 kts 127°
2026-04-30 21:09 -33.85316 -70.68459 14127 ft 332 kts 122°
2026-04-30 21:09 -33.86343 -70.66176 14450 ft 348 kts 116°
2026-04-30 21:09 -33.87421 -70.63531 14803 ft 358 kts 113°
2026-04-30 21:09 -33.88465 -70.60819 15151 ft 361 kts 113°
2026-04-30 21:10 -33.89508 -70.58091 15499 ft 362 kts 113°
2026-04-30 21:10 -33.90591 -70.55249 15860 ft 365 kts 113°
2026-04-30 21:10 -33.91641 -70.52492 16225 ft 357 kts 116°
2026-04-30 21:10 -33.92638 -70.49871 16564 ft 350 kts 115°
2026-04-30 21:11 -33.93651 -70.47207 16916 ft 346 kts 114°
2026-04-30 21:11 -33.94652 -70.44574 17266 ft 343 kts 114°
2026-04-30 21:11 -33.95645 -70.41956 17617 ft 345 kts 114°
2026-04-30 21:11 -33.96652 -70.39298 17971 ft 347 kts 114°
2026-04-30 21:12 -33.97628 -70.36717 18313 ft 349 kts 116°
2026-04-30 21:12 -33.98661 -70.33983 18672 ft 352 kts 116°
2026-04-30 21:12 -33.99670 -70.31309 19020 ft 354 kts 116°
2026-04-30 21:12 -34.00696 -70.28591 19373 ft 353 kts 115°
2026-04-30 21:13 -34.01699 -70.25930 19718 ft 356 kts 115°
2026-04-30 21:13 -34.02748 -70.23145 20077 ft 361 kts 115°
2026-04-30 21:13 -34.03768 -70.20434 20420 ft 364 kts 114°
2026-04-30 21:13 -34.04819 -70.17640 20773 ft 365 kts 115°
2026-04-30 21:14 -34.05892 -70.14846 21064 ft 368 kts 115°
2026-04-30 21:14 -34.06959 -70.12050 21359 ft 377 kts 115°
2026-04-30 21:14 -34.08071 -70.09120 21718 ft 384 kts 114°
2026-04-30 21:14 -34.09191 -70.06148 22086 ft 388 kts 115°
2026-04-30 21:15 -34.10293 -70.03215 22436 ft 384 kts 114°
2026-04-30 21:15 -34.11396 -70.00273 22789 ft 379 kts 114°
2026-04-30 21:15 -34.12470 -69.97398 23137 ft 376 kts 114°
2026-04-30 21:15 -34.13545 -69.94519 23488 ft 376 kts 114°
2026-04-30 21:16 -34.14617 -69.91645 23836 ft 380 kts 117°
2026-04-30 21:16 -34.15719 -69.88688 24191 ft 385 kts 116°
2026-04-30 21:16 -34.16808 -69.85768 24537 ft 389 kts 116°
2026-04-30 21:16 -34.17838 -69.82700 24892 ft 390 kts 109°
2026-04-30 21:17 -34.18578 -69.79587 25239 ft 389 kts 102°
2026-04-30 21:17 -34.19088 -69.76372 25590 ft 390 kts 100°
2026-04-30 21:17 -34.19537 -69.73104 25913 ft 397 kts 99°
2026-04-30 21:17 -34.19992 -69.69748 26208 ft 405 kts 101°
2026-04-30 21:18 -34.20445 -69.66410 26494 ft 409 kts 100°
2026-04-30 21:18 -34.20907 -69.62999 26796 ft 412 kts 100°
2026-04-30 21:18 -34.21373 -69.59562 27116 ft 416 kts 101°
2026-04-30 21:18 -34.21842 -69.56108 27417 ft 420 kts 100°
2026-04-30 21:19 -34.22317 -69.52597 27720 ft 425 kts 99°
2026-04-30 21:19 -34.22800 -69.49023 28024 ft 430 kts 99°
2026-04-30 21:19 -34.23283 -69.45445 28317 ft 434 kts 102°
2026-04-30 21:19 -34.23770 -69.41881 28596 ft 436 kts 102°
2026-04-30 21:20 -34.24287 -69.38253 28897 ft 437 kts 102°
2026-04-30 21:20 -34.24791 -69.34637 29222 ft 438 kts 101°
2026-04-30 21:20 -34.25282 -69.31052 29518 ft 441 kts 100°
2026-04-30 21:20 -34.25783 -69.27349 29822 ft 444 kts 99°
2026-04-30 21:21 -34.26278 -69.23652 30123 ft 447 kts 100°
2026-04-30 21:21 -34.26777 -69.19901 30409 ft 450 kts 102°
2026-04-30 21:21 -34.27761 -69.12477 31019 ft 454 kts 100°
2026-04-30 21:22 -34.28268 -69.08648 31331 ft 455 kts 99°
2026-04-30 21:22 -34.29763 -68.97256 32232 ft 458 kts 102°
2026-04-30 21:23 -34.30249 -68.93512 32526 ft 458 kts 101°
2026-04-30 21:23 -34.30748 -68.89655 32835 ft 458 kts 99°
2026-04-30 21:23 -34.31730 -68.82014 33436 ft 459 kts 99°
2026-04-30 21:24 -34.32219 -68.78195 33736 ft 459 kts 98°
2026-04-30 21:24 -34.32700 -68.74423 33914 ft 455 kts 98°
2026-04-30 21:24 -34.33647 -68.66975 33927 ft 443 kts 100°
2026-04-30 21:25 -34.35053 -68.56116 33914 ft 436 kts 99°
2026-04-30 21:26 -34.36369 -68.45870 33920 ft 438 kts 102°
2026-04-30 21:27 -34.37779 -68.34740 33925 ft 447 kts 99°
2026-04-30 21:27 -34.38705 -68.27360 33921 ft 441 kts 99°
2026-04-30 21:28 -34.39631 -68.19938 33941 ft 453 kts 101°
2026-04-30 21:28 -34.40114 -68.16152 33953 ft 453 kts 100°
2026-04-30 21:29 -34.41493 -68.05086 33929 ft 440 kts 99°
2026-04-30 21:29 -34.42705 -67.95120 33962 ft 452 kts 100°
2026-04-30 21:30 -34.43757 -67.86415 33937 ft 446 kts 98°
2026-04-30 21:31 -34.45793 -67.69117 33934 ft 449 kts 98°
2026-04-30 21:32 -34.47069 -67.58002 33899 ft 441 kts 98°
2026-04-30 21:32 -34.47946 -67.50636 33875 ft 448 kts 100°
2026-04-30 21:33 -34.49279 -67.39023 33827 ft 476 kts 96°
2026-04-30 21:34 -34.50189 -67.30929 33816 ft 488 kts 96°
2026-04-30 21:34 -34.51556 -67.18695 33877 ft 489 kts 96°
2026-04-30 21:35 -34.52462 -67.10528 33896 ft 489 kts 96°
2026-04-30 21:35 -34.53358 -67.02362 33908 ft 491 kts 95°
2026-04-30 21:36 -34.54259 -66.94073 33907 ft 494 kts 96°
2026-04-30 21:37 -34.56025 -66.77644 33918 ft 491 kts 95°
2026-04-30 21:37 -34.56943 -66.69375 33916 ft 494 kts 96°
2026-04-30 21:38 -34.57847 -66.61101 33913 ft 494 kts 96°
2026-04-30 21:38 -34.58733 -66.52865 33931 ft 491 kts 95°
2026-04-30 21:39 -34.59602 -66.44711 33952 ft 485 kts 95°
2026-04-30 21:39 -34.60462 -66.36568 33963 ft 486 kts 95°
2026-04-30 21:40 -34.61307 -66.28504 33964 ft 489 kts 95°
2026-04-30 21:40 -34.62170 -66.20215 33964 ft 488 kts 96°
2026-04-30 21:41 -34.63015 -66.12036 33963 ft 492 kts 96°
2026-04-30 21:41 -34.63865 -66.03756 33965 ft 495 kts 96°
2026-04-30 21:42 -34.64699 -65.95578 33962 ft 491 kts 97°
2026-04-30 21:42 -34.65545 -65.87220 33965 ft 496 kts 97°
2026-04-30 21:43 -34.66379 -65.78950 33964 ft 494 kts 97°
2026-04-30 21:43 -34.67230 -65.70655 33965 ft 492 kts 97°
2026-04-30 21:44 -34.68045 -65.62423 33965 ft 494 kts 97°
2026-04-30 21:44 -34.68857 -65.54078 33964 ft 496 kts 96°
2026-04-30 21:45 -34.69656 -65.45825 33965 ft 492 kts 96°
2026-04-30 21:45 -34.70454 -65.37566 33966 ft 491 kts 95°
2026-04-30 21:46 -34.71238 -65.29342 33966 ft 490 kts 95°
2026-04-30 21:46 -34.72014 -65.21131 33882 ft 488 kts 96°
2026-04-30 21:47 -34.72776 -65.13000 33864 ft 488 kts 95°
2026-04-30 21:47 -34.73547 -65.04723 33910 ft 489 kts 95°
2026-04-30 21:48 -34.74352 -64.96549 33851 ft 485 kts 95°
2026-04-30 21:48 -34.75120 -64.88395 33861 ft 487 kts 95°
2026-04-30 21:49 -34.75872 -64.80180 33908 ft 488 kts 95°
2026-04-30 21:49 -34.76608 -64.72035 33850 ft 485 kts 95°
2026-04-30 21:50 -34.77346 -64.63874 33868 ft 487 kts 95°
2026-04-30 21:50 -34.78094 -64.55648 33902 ft 488 kts 95°
2026-04-30 21:51 -34.78830 -64.47460 33848 ft 489 kts 95°
2026-04-30 21:51 -34.79560 -64.39278 33876 ft 488 kts 95°
2026-04-30 21:52 -34.80332 -64.31028 33896 ft 489 kts 95°
2026-04-30 21:52 -34.81076 -64.22741 33855 ft 493 kts 95°
2026-04-30 21:53 -34.81796 -64.14502 33911 ft 486 kts 96°
2026-04-30 21:53 -34.82496 -64.06406 33927 ft 487 kts 96°
2026-04-30 21:54 -34.83208 -63.98152 33902 ft 490 kts 95°
2026-04-30 21:54 -34.83923 -63.89965 33940 ft 483 kts 94°
2026-04-30 21:55 -34.84631 -63.81771 33935 ft 487 kts 95°
2026-04-30 21:55 -34.85324 -63.73524 33914 ft 490 kts 94°
2026-04-30 21:56 -34.85995 -63.65403 33944 ft 483 kts 94°
2026-04-30 21:56 -34.86664 -63.57271 33935 ft 485 kts 94°
2026-04-30 21:57 -34.87347 -63.48996 33920 ft 488 kts 94°
2026-04-30 21:57 -34.88014 -63.40833 33948 ft 482 kts 94°
2026-04-30 21:58 -34.88672 -63.32681 33933 ft 485 kts 93°
2026-04-30 21:58 -34.89328 -63.24478 33923 ft 487 kts 94°
2026-04-30 21:59 -34.89975 -63.16345 33929 ft 485 kts 94°
2026-04-30 22:00 -34.90989 -63.03999 33880 ft 490 kts 94°
2026-04-30 22:00 -34.91990 -62.91677 33919 ft 485 kts 94°
2026-04-30 22:01 -34.92621 -62.83509 33902 ft 487 kts 93°
2026-04-30 22:01 -34.93249 -62.75256 33898 ft 487 kts 93°
2026-04-30 22:02 -34.93871 -62.67061 33923 ft 485 kts 93°
2026-04-30 22:02 -34.94496 -62.58966 33902 ft 488 kts 93°
2026-04-30 22:03 -34.95110 -62.50694 33906 ft 487 kts 93°
2026-04-30 22:03 -34.95709 -62.42451 33926 ft 487 kts 93°
2026-04-30 22:04 -34.96303 -62.34206 33903 ft 489 kts 93°
2026-04-30 22:05 -34.96912 -62.21809 33926 ft 487 kts 90°
2026-04-30 22:05 -34.97148 -62.13588 33935 ft 487 kts 90°
2026-04-30 22:06 -34.97395 -62.05314 33870 ft 487 kts 90°
2026-04-30 22:06 -34.97757 -61.94121 33870 ft 478 kts 93°
2026-04-30 22:07 -34.97895 -61.90187 33882 ft 458 kts 92°
2026-04-30 22:07 -34.98020 -61.86361 33874 ft 448 kts 94°
2026-04-30 22:07 -34.98246 -61.78903 33896 ft 434 kts 92°
2026-04-30 22:08 -34.98457 -61.71578 33910 ft 433 kts 92°
2026-04-30 22:08 -34.98663 -61.64249 33914 ft 433 kts 92°
2026-04-30 22:09 -34.98870 -61.56763 33841 ft 452 kts 95°
2026-04-30 22:09 -34.99072 -61.48977 33855 ft 461 kts 95°
2026-04-30 22:10 -34.99264 -61.41235 33437 ft 449 kts 94°
2026-04-30 22:10 -34.99353 -61.37507 32925 ft 447 kts 96°
2026-04-30 22:10 -34.99444 -61.33706 32424 ft 447 kts 96°
2026-04-30 22:11 -34.99621 -61.26078 31556 ft 446 kts 96°
2026-04-30 22:11 -34.99705 -61.22341 31155 ft 440 kts 95°
2026-04-30 22:11 -34.99788 -61.18626 30753 ft 435 kts 95°
2026-04-30 22:12 -34.99876 -61.15035 30362 ft 429 kts 92°
2026-04-30 22:12 -34.99975 -61.11319 29935 ft 432 kts 96°
2026-04-30 22:12 -35.00069 -61.07670 29545 ft 445 kts 95°
2026-04-30 22:12 -35.00165 -61.03797 29148 ft 443 kts 96°
2026-04-30 22:13 -35.00255 -61.00066 28749 ft 436 kts 96°
2026-04-30 22:13 -35.00339 -60.96452 28356 ft 430 kts 95°
2026-04-30 22:13 -35.00423 -60.92817 27981 ft 424 kts 92°
2026-04-30 22:13 -35.00500 -60.89266 27591 ft 420 kts 96°
2026-04-30 22:14 -35.00579 -60.85693 27213 ft 419 kts 96°
2026-04-30 22:14 -35.00656 -60.82138 26851 ft 423 kts 95°
2026-04-30 22:14 -35.00732 -60.78537 26548 ft 415 kts 96°
2026-04-30 22:14 -35.00803 -60.75100 26250 ft 408 kts 95°
2026-04-30 22:15 -35.00873 -60.71660 25948 ft 402 kts 95°
2026-04-30 22:15 -35.00942 -60.68269 25648 ft 396 kts 91°
2026-04-30 22:15 -35.00781 -60.64969 25330 ft 392 kts 84°
2026-04-30 22:15 -35.00343 -60.61676 25061 ft 401 kts 83°
2026-04-30 22:16 -34.99887 -60.58304 24820 ft 411 kts 84°
2026-04-30 22:16 -34.99420 -60.54871 24578 ft 402 kts 84°
2026-04-30 22:17 -34.98081 -60.45066 23827 ft 380 kts 81°
2026-04-30 22:17 -34.97782 -60.42887 23653 ft 375 kts 81°
2026-04-30 22:17 -34.96923 -60.36634 23134 ft 385 kts 77°
2026-04-30 22:18 -34.96324 -60.32313 22813 ft 398 kts 84°
2026-04-30 22:18 -34.95555 -60.26746 22394 ft 397 kts 83°
2026-04-30 22:19 -34.94650 -60.20157 21903 ft 385 kts 82°
2026-04-30 22:19 -34.94227 -60.17001 21642 ft 379 kts 78°
2026-04-30 22:19 -34.93370 -60.10694 21142 ft 382 kts 84°
2026-04-30 22:20 -34.92922 -60.07413 20886 ft 385 kts 83°
2026-04-30 22:20 -34.92043 -60.01030 20168 ft 385 kts 82°
2026-04-30 22:20 -34.91600 -59.97830 19730 ft 384 kts 82°
2026-04-30 22:21 -34.91159 -59.94656 19281 ft 381 kts 81°
2026-04-30 22:21 -34.90716 -59.91471 18801 ft 382 kts 78°
2026-04-30 22:21 -34.90264 -59.88238 18321 ft 383 kts 78°
2026-04-30 22:21 -34.89812 -59.85018 17843 ft 383 kts 82°
2026-04-30 22:22 -34.89369 -59.81863 17367 ft 384 kts 81°
2026-04-30 22:22 -34.88918 -59.78661 16873 ft 382 kts 83°
2026-04-30 22:22 -34.88469 -59.75468 16371 ft 379 kts 81°
2026-04-30 22:22 -34.88018 -59.72279 15864 ft 376 kts 81°
2026-04-30 22:23 -34.87579 -59.69181 15398 ft 373 kts 81°
2026-04-30 22:23 -34.87138 -59.66077 14942 ft 373 kts 82°
2026-04-30 22:23 -34.86700 -59.63007 14501 ft 370 kts 84°
2026-04-30 22:23 -34.86256 -59.59887 14043 ft 367 kts 84°
2026-04-30 22:24 -34.85830 -59.56901 13602 ft 364 kts 83°
2026-04-30 22:24 -34.85390 -59.53823 13126 ft 362 kts 82°
2026-04-30 22:24 -34.84958 -59.50807 12649 ft 359 kts 82°
2026-04-30 22:24 -34.84541 -59.47900 12186 ft 357 kts 81°
2026-04-30 22:25 -34.84103 -59.44856 11695 ft 355 kts 80°
2026-04-30 22:25 -34.83683 -59.41940 11225 ft 356 kts 79°
2026-04-30 22:25 -34.83253 -59.38965 10751 ft 354 kts 83°
2026-04-30 22:25 -34.82825 -59.36008 10262 ft 352 kts 82°
2026-04-30 22:26 -34.81982 -59.30195 9268 ft 350 kts 81°
2026-04-30 22:26 -34.81570 -59.27301 8770 ft 348 kts 80°
2026-04-30 22:26 -34.81152 -59.24363 8262 ft 346 kts 80°
2026-04-30 22:27 -34.80743 -59.21527 7768 ft 344 kts 80°
2026-04-30 22:27 -34.80321 -59.18625 7260 ft 342 kts 80°
2026-04-30 22:27 -34.79492 -59.12979 6264 ft 339 kts 80°
2026-04-30 22:28 -34.78654 -59.07329 5257 ft 336 kts 79°
2026-04-30 22:28 -34.78248 -59.04601 5013 ft 327 kts 79°
2026-04-30 22:29 -34.77110 -58.96979 4905 ft 283 kts 79°
2026-04-30 22:29 -34.76770 -58.94708 4900 ft 269 kts 79°
2026-04-30 22:30 -34.76510 -58.86394 4636 ft 239 kts 101°
2026-04-30 22:31 -34.77490 -58.80458 3418 ft 240 kts 101°
2026-04-30 22:32 -34.78384 -58.74888 2116 ft 207 kts 102°
2026-04-30 22:32 -34.78953 -58.71738 1655 ft 168 kts 102°
2026-04-30 22:33 -34.79621 -58.68037 1611 ft 144 kts 102°
2026-04-30 22:33 -34.80057 -58.65623 1395 ft 147 kts 102°
2026-04-30 22:34 -34.80685 -58.62151 854 ft 133 kts 102°
2026-04-30 22:35 -34.81079 -58.59963 500 ft 133 kts 102°
2026-04-30 22:36 -34.81893 -58.55575 145 ft 136 kts 102°
2026-04-30 22:36 -34.81936 -58.55316 75 ft 0 kts 102°
2026-04-30 22:37 -34.81951 -58.55228 74 ft 20 kts 102°
2026-04-30 22:37 -34.81979 -58.55067 74 ft 17 kts 101°
2026-04-30 22:37 -34.82024 -58.54786 74 ft 18 kts 101°
2026-04-30 22:38 -34.82063 -58.54528 74 ft 19 kts 101°
2026-04-30 22:38 -34.82105 -58.54283 74 ft 10 kts 102°
2026-04-30 22:39 -34.82115 -58.54226 74 ft 4 kts 101°
2026-04-30 22:39 -34.82078 -58.53856 74 ft 9 kts 52°
2026-04-30 22:40 -34.82025 -58.53778 74 ft 3 kts 48°
2026-04-30 22:41 -34.81766 -58.53714 74 ft 15 kts 333°
2026-04-30 22:41 -34.81670 -58.53757 74 ft 3 kts 358°
2026-04-30 22:42 -34.81389 -58.53590 74 ft 3 kts
2026-04-30 22:43 -34.81312 -58.53584 74 ft 2 kts
2026-04-30 22:43 -34.81273 -58.53560 74 ft 0 kts 65°